Tracking 17636 objects as of 30-April-2016
HD Live streaming from Space Station
objects crossing your sky now

COSMOS 778

Track COSMOS 778 now!
10-day predictions
COSMOS 778 is classified as:


NORAD ID: 8419
Int'l Code: 1975-103A
Perigee: 973.1 km
Apogee: 1,007.6 km
Inclination: 83.0 °
Period: 104.8 minutes
Semi major axis: 7361 km
RCS: 2.3884 m2 (large)
Launch date: November 4, 1975
Source: Commonwealth of Independent States (former USSR) (CIS)
Launch site: PLESETSK MISSILE AND SPACE COMPLEX (PKMTR)
Your satellite tracking list
Your tracking list is empty





NASA's NSSDC Master Catalog

Two Line Element Set (TLE):
1 08419U 75103A   16120.53132615  .00000040  00000-0  26145-4 0  9990
2 08419  82.9722 141.5277 0023403  99.7817   8.3742 13.74564867 30394
Source of the keplerian elements: AFSPC

N2YO: 325